map of HUQ home
HUQ - Airport
Location
City:  Houn, Libyan Arab Jamahiriya (Libya)
ICAO:HLON
IATA:HUQ

Details
Type:Airport (Aerodrome, Airfield)
Latitude:2906'36"N (29.110106)
Longitude:1557'56"E (15.965567)
Datum:WGS 1984
Elevation:919 ft (280 m)
Variation:2.93E (WMM2015v2 magnetic declination)
0.11 annual change
Runways:1
Longest:5905 × 98 ft (1800 × 30 m), paved

Time
Time Zone:UTC+1 (DST+2)

Weather
TAF:HLON 040500Z 0406/0506 33012KT 8000 NSC
BECMG 0418/0420 27010KT FEW040 SCT090 PROB30 TWEMPO 0418/0424 5000 SHRA BKN035 BKN080

Related Locations
Nearby:
Farthest:RAR: 11828 mi / 19035 km
Avarua [Rarotonga Intl], Rarotonga Island, CK

Find:

   beyond  
but within

Other Information
Maps:
NOTAMs:
Links:
Sources:

  
  • flag of Libyan Arab Jamahiriya (Libya)
  

Sectional Chart

Flight Planning
at skyvector.com

Satellite Image

Google Maps Satellite view

 

Copyright © 2004-2019 Karl L. Swartz. All rights reserved.
The Great Circle Mapper name and logo are trademarks of the Great Circle Mapper.
All other trademarks mentioned herein belong to their respective owners.
Please see credits for attibutions and further copyright information.

  Follow gcmap on Facebook Follow gcmap on Twitter GCmap on LinkedIn

hCard Microformat

Geo Microformat